Location: Haliburton Scout Reserve
(45.0900°N, 78.3200°W)
Time: 10:31:46
(UTC-04:00)

S-56A Canister/Altair - Pass Details

Date: 06 February 2023
Orbit: 638 x 2493 km, 38.9° (Epoch: 25 March)

Event Time Altitude Azimuth Distance (km) Brightness Sun altitude
Rises 08:59:32 0° 204° (SSW) 3,038 10.8 13.2°
Reaches altitude 10° 09:03:17 10° 174° (S) 2,026 10.5 13.7°
Maximum altitude 09:05:08 12° 149° (SSE) 1,865 11.3 14.0°
Drops below altitude 10° 09:06:59 10° 124° (SE) 2,032 12.5 14.2°
Sets 09:10:45 0° 94° (E) 3,059 11.5 14.8°
